FENGYUN 1C DEB, 37003

Orbit data source: Space-Track

FENGYUN 1C DEB, 37003 is space debris in SSO originally from a launch on Mon, 10 May 1999 UTC launched from the Taiyaun Space Center, China (TSC). Fengyun 1C debris stems from the Chinese weather satellite Fengyun-1C, which was intentionally destroyed by a Chinese anti-satellite missile in 2007. This event dramatically increased the amount of space debris, with thousands of trackable fragments posing hazards to satellites and human spaceflight. The Fengyun 1C debris cloud has become a focal point in discussions about space sustainability and the need for international regulations to prevent the creation of new debris.

Loading next visibility...
Identifier
37003, 1999-025ECK
Orbit
SSO
Country
Flag of CNCN / PRC
Related business
Manufacturer
Unknown
Mission
Spacecraft
Bus & Motor
Unknown
Mass
Unknown
Launch date (UTC)
1999-05-10 (27 years ago)
Launch vehicle
Unknown
Launch site
Taiyaun Space Center, China (TSC)
Object type
Payload
Rocket body
Debris
Shape & HBR
Unknown shape, 0.1 m
Radar Cross Section
Small (<0.1 m²)

Expand to show TLE details & history
Last TLE update: 2 days ago

TLE from 2 days ago
0 FENGYUN 1C DEB
1 37003U 99025ECK 26119.84344491  .00000523  00000-0  39231-3 0  9995
2 37003  98.8320 143.0515 0097466 140.9842  35.9545 13.96486274625840
Epoch: 2026-04-29T20:14Z
TLE epoch observation values (Epoch: 2026-04-29T20:14:33.640Z)
Latitude
2.26901°
Longitude
161.96363°
Altitude
851.361 km
Speed
7.456 km/s
True Right ascension
21h 33m 36s
True Declination
2° 15' 20"
Sunlit
Object was in daylight at epoch
Visualization orbit readout
Latitude
Unknown
Longitude
Unknown
Altitude
Unknown
Speed
Unknown
Apparent Right ascension
Unknown
Apparent Declination
Unknown
Sunlit
N/A
Visualization observer readout
Local Sidereal Time
13:07:07
Azimuth
Unknown
Elevation
Unknown
Doppler factor
Unknown
Orbital elements
Apogee altitude
974.152 km
Perigee altitude
832.216 km
Semi-major axis
7,281.321 km
Eccentricity
0.00975
Inclination
98.832°
RAAN
143.0515°
Arg. of periapsis
140.9842°
True anomaly
36.61678°
Mean anomaly
35.9545°
Eccentric anomaly
36.28499°
Mean motion
3.49324 °/min
Orbital period
103.06 mins
BSTAR
0.00039231
Loading maneuver chart data...
Computing Atmospheric mass density...
Loading historical data...
Loading historical data...
Loading historical data...
Loading historical data...
Loading historical data...
Loading historical data...
Loading historical data...

Documentation

Showing up to 5 results
|